Location: Broekland
(52.3610°N, 6.2005°E)
Time: 23:59:38
(UTC+00:00)

Cosmos 1707 - Pass Details

Date: 19 May 2025
Orbit: 421 x 430 km, 82.5° (Epoch: 22 June)

Event Time Altitude Azimuth Distance (km) Brightness Sun altitude
Exits shadow 22:53:25 47° 147° (SSE) 588 2.5 -17.2°
Maximum altitude 22:54:05 59° 98° (E) 509 2.5 -17.2°
Drops below altitude 10° 22:57:25 10° 17° (NNE) 1,555 6.1 -17.3°
Sets 22:59:30 0° 14° (NNE) 2,431 7.4 -17.3°
